Location: Emerald Isle
(34.6779°N, 76.9508°W)
Time: 20:28:10
(UTC-05:00)

Amateur Radio Satellites - All Passes

Search period start: 23 January 2018 19:58
Search period end: 24 January 2018 19:58
Location: Emerald Isle, 34.6779°N, 76.9508°W

Satellite Date Start Highest point End Downlink Frequencies (MHz)
Time Altitude Azimuth
ISS 23 Jan 20:03:52 20:06:39 26° 325° (NW) 20:09:27 437.550
UWE-3 23 Jan 20:12:19 20:14:55 15° 268° (W) 20:17:33 435.000/436.395/437.385
AAUSAT CUBESAT 2 23 Jan 20:17:21 20:19:53 16° 266° (W) 20:22:27 437.432
DELFI C3 23 Jan 20:22:38 20:26:00 28° 73° (ENE) 20:29:23 145.870
Max Valier Satellite 23 Jan 20:22:50 20:25:21 17° 70° (ENE) 20:27:53 145.860
ZACube-1 23 Jan 20:27:59 20:31:13 20° 266° (W) 20:34:32 437.345
FO-29 23 Jan 20:31:03 20:36:14 76° 285° (WNW) 20:41:38 435.910
AO-73 23 Jan 20:32:41 20:35:57 20° 266° (W) 20:39:18 145.935
EO-88 23 Jan 20:34:17 20:36:26 15° 69° (ENE) 20:38:35 145.990 - 145.960
AO-85 23 Jan 20:50:55 20:55:54 56° 245° (WSW) 21:01:05 145.980
STRAND 1 23 Jan 20:57:36 21:00:49 17° 295° (WNW) 21:04:03 437.568
Oscar 11 23 Jan 21:03:26 21:05:47 14° 267° (W) 21:08:08 .
TIGRISAT 23 Jan 21:09:19 21:13:13 25° 96° (E) 21:17:04 435.000
UNISAT 6 23 Jan 21:25:03 21:29:32 42° 98° (E) 21:33:56 437.425
LO-87 23 Jan 21:43:48 21:45:18 12° 68° (ENE) 21:46:48 145.935 - 145.965
Max Valier Satellite 23 Jan 21:55:53 21:58:57 24° 264° (W) 22:02:01 145.860
DELFI C3 23 Jan 21:58:19 22:00:43 16° 266° (W) 22:03:09 145.870
EO-88 23 Jan 22:06:41 22:09:47 26° 263° (W) 22:12:55 145.990 - 145.960
ESTCUBE 1 23 Jan 22:09:21 22:13:05 26° 70° (ENE) 22:16:49 437.505/2401.250
PRISM 23 Jan 22:12:52 22:16:17 25° 97° (E) 22:19:41 437.425
YUBILEINY 23 Jan 22:14:30 22:22:53 51° 89° (E) 22:31:15 435.215
AIST 2D 23 Jan 22:43:14 22:46:08 25° 96° (E) 22:49:02 435.315
TIGRISAT 23 Jan 22:45:50 22:49:46 27° 290° (WNW) 22:53:39 435.000
SPROUT 23 Jan 23:02:16 23:05:27 21° 69° (ENE) 23:08:40 437.525
UNISAT 6 23 Jan 23:02:52 23:05:50 17° 293° (WNW) 23:08:46 437.425
NO-84 23 Jan 23:11:52 23:14:33 37° 44° (NE) 23:17:21 435.350 FM
QB50P2 23 Jan 23:14:25 23:17:38 20° 95° (E) 23:20:48 145.880/145.840
LO-87 23 Jan 23:15:10 23:18:21 31° 262° (W) 23:21:34 145.935 - 145.965
VELOX 1 23 Jan 23:30:40 23:34:12 24° 70° (ENE) 23:37:45 145.980
DUCHIFAT 1 23 Jan 23:38:16 23:41:48 25° 96° (E) 23:45:18 145.980
EO-79 23 Jan 23:43:24 23:47:26 40° 99° (E) 23:51:27 145.935-145.965
O/OREOS (USA 219) 23 Jan 23:44:33 23:49:04 89° 299° (WNW) 23:53:34 437.305
ESTCUBE 1 23 Jan 23:46:06 23:49:46 24° 264° (W) 23:53:26 437.505/2401.250
PRISM 23 Jan 23:48:20 23:51:21 20° 291° (WNW) 23:54:23 437.425
YUBILEINY 24 Jan 00:12:22 00:19:52 31° 287° (WNW) 00:27:26 435.215
AIST 2D 24 Jan 00:17:11 00:19:02 14° 290° (WNW) 00:20:53 435.315
POLYITAN 1 24 Jan 00:19:09 00:23:26 73° 284° (WNW) 00:27:41 437.675
BUGSAT 1 24 Jan 00:26:44 00:29:48 19° 95° (E) 00:32:49 437.445
NANOSAT C BR1 24 Jan 00:31:33 00:35:46 58° 285° (WNW) 00:39:55 145.865
SPROUT 24 Jan 00:37:34 00:41:09 26° 264° (W) 00:44:45 437.525
AO-91 24 Jan 00:40:19 00:44:05 23° 96° (E) 00:48:04 145.960
QB50P2 24 Jan 00:49:43 00:53:21 27° 289° (WNW) 00:56:58 145.880/145.840
UKube-1 24 Jan 00:53:16 00:56:33 22° 69° (ENE) 00:59:52 .
ISS 24 Jan 00:59:16 01:00:04 11° 25° (NNE) 01:00:54 437.550
Oscar 19 24 Jan 01:00:57 01:05:26 30° 97° (E) 01:09:53 437.125/150
50 SAT 24 Jan 01:02:58 01:05:49 36° 74° (ENE) 01:08:41 437.505
VELOX 1 24 Jan 01:06:57 01:10:31 24° 264° (W) 01:14:05 145.980
DX 1 24 Jan 01:11:21 01:15:37 64° 75° (ENE) 01:19:54 434.975-435.025
Gurwin Techsat 1B 24 Jan 01:13:52 01:18:31 30° 97° (E) 01:23:08 435.225
DUCHIFAT 1 24 Jan 01:14:00 01:17:17 22° 290° (WNW) 01:20:33 145.980
EO-79 24 Jan 01:20:26 01:22:48 15° 293° (WNW) 01:25:09 145.935-145.965
FALCONSAT 3 24 Jan 01:25:59 01:28:51 21° 152° (SSE) 01:31:43 435.103
MOZHAYETS 4 24 Jan 01:53:40 01:57:40 30° 71° (ENE) 02:01:41
ITUPSAT 1 24 Jan 01:56:25 01:59:39 18° 66° (ENE) 02:02:53 437.325
BUGSAT 1 24 Jan 02:01:25 02:05:06 29° 289° (WNW) 02:08:45 437.445
nSIGHT-1 24 Jan 02:06:27 02:09:35 55° 41° (NE) 02:12:42 .
AO-91 24 Jan 02:16:11 02:20:27 34° 287° (WNW) 02:25:02 145.960
AO-7 24 Jan 02:20:09 02:26:06 21° 95° (E) 02:31:58 .
UKube-1 24 Jan 02:28:48 02:32:24 26° 263° (W) 02:36:00 .
BEESAT 24 Jan 02:32:11 02:36:41 44° 72° (ENE) 02:41:14 436.000
ISS 24 Jan 02:33:47 02:37:03 72° 43° (NE) 02:40:18 437.550
Oscar 19 24 Jan 02:40:18 02:44:36 27° 292° (WNW) 02:48:53 437.125/150
Gurwin Techsat 1B 24 Jan 02:53:50 02:58:19 28° 291° (WNW) 03:02:47 435.225
FALCONSAT 3 24 Jan 03:03:57 03:07:37 71° 167° (SSE) 03:11:17 435.103
MOZHAYETS 4 24 Jan 03:31:10 03:34:46 22° 265° (W) 03:38:23
ITUPSAT 1 24 Jan 03:32:38 03:37:06 40° 261° (W) 03:41:37 437.325
CUBESAT XI-V 24 Jan 03:42:17 03:46:57 73° 258° (WSW) 03:51:38 437.345
ITAMSAT 1 24 Jan 03:53:18 03:58:31 69° 103° (ESE) 04:03:42 435.822/435.867
DOVE 4 24 Jan 04:09:05 04:12:50 25° 97° (E) 04:16:45 437.250
AO-7 24 Jan 04:11:04 04:19:24 72° 290° (WNW) 04:27:39 .
BEESAT 24 Jan 04:11:49 04:14:37 15° 266° (W) 04:17:25 436.000
SO-50 24 Jan 04:16:54 04:21:19 77° 116° (ESE) 04:25:49 436.795
KKS-1 24 Jan 04:33:15 04:37:32 54° 74° (ENE) 04:41:51 437.445
STARS 24 Jan 04:39:50 04:43:15 23° 69° (ENE) 04:46:41 437.465
FALCONSAT 3 24 Jan 04:43:02 04:46:43 77° 3° (N) 04:50:24 435.103
M-CUBED/EXP-1 PRIME 24 Jan 05:11:25 05:14:42 75° 106° (ESE) 05:17:56 437.505
XW-2C 24 Jan 05:22:28 05:25:04 18° 95° (E) 05:27:38 145.795 - 145.815
LilacSat-2 24 Jan 05:24:42 05:27:36 21° 96° (E) 05:30:29 437.200
ITAMSAT 1 24 Jan 05:35:06 05:37:19 13° 297° (WNW) 05:39:33 435.822/435.867
KAITUO 1B 24 Jan 05:46:36 05:49:39 24° 97° (E) 05:52:42 145.475/437.950
DOVE 4 24 Jan 05:46:43 05:50:24 26° 289° (WNW) 05:54:15 437.250
NUDT-PHONESAT 24 Jan 05:50:45 05:53:51 26° 97° (E) 05:56:55 437.300
CUTE-I 24 Jan 05:52:20 05:57:11 36° 98° (E) 06:02:03 437.470
XW-2F 24 Jan 05:54:22 05:57:56 43° 99° (E) 06:01:28 145.980 - 146.000
RS-15 24 Jan 05:59:14 06:09:11 30° 103° (ESE) 06:19:02 29.354- 29.394
SO-50 24 Jan 06:00:44 06:02:18 12° 315° (NW) 06:03:54 436.795
AO-7 24 Jan 06:06:59 06:10:39 14° 309° (NW) 06:14:20 .
XW-2D 24 Jan 06:07:10 06:10:55 79° 100° (E) 06:14:38 145.860 - 145.880
HO-68 24 Jan 06:10:56 06:16:58 29° 97° (E) 06:22:57 435.675
KKS-1 24 Jan 06:13:16 06:14:22 11° 268° (W) 06:15:26 437.445
STARS 24 Jan 06:15:48 06:19:25 26° 263° (W) 06:23:04 437.465
FALCONSAT 3 24 Jan 06:22:09 06:25:47 61° 197° (SSW) 06:29:24 435.103
XW-2B 24 Jan 06:24:59 06:28:40 60° 284° (WNW) 06:32:20 145.730 - 145.750
UWE-3 24 Jan 06:29:27 06:30:53 11° 91° (E) 06:32:17 435.000/436.395/437.385
STRAND 1 24 Jan 06:29:30 06:34:23 50° 73° (ENE) 06:39:18 437.568
CUBEBUG 2 24 Jan 06:29:49 06:33:35 23° 95° (E) 06:37:18 437.445
FO-29 24 Jan 06:39:24 06:45:13 32° 70° (ENE) 06:50:29 435.910
SEEDS 24 Jan 06:55:21 06:59:15 38° 98° (E) 07:03:07 437.485
XW-2C 24 Jan 06:56:10 06:59:09 23° 288° (WNW) 07:02:07 145.795 - 145.815
LilacSat-2 24 Jan 06:58:56 07:01:43 20° 289° (WNW) 07:04:28 437.200
CUTE 1.7 + AOD 2 24 Jan 07:15:05 07:19:15 64° 284° (WNW) 07:23:22 437.475
KAITUO 1B 24 Jan 07:21:03 07:23:23 16° 290° (WNW) 07:25:43 145.475/437.950
NUDT-PHONESAT 24 Jan 07:25:14 07:27:25 15° 290° (WNW) 07:29:36 437.300
CUTE-I 24 Jan 07:32:46 07:37:00 25° 292° (WNW) 07:41:14 437.470
JUGNU 24 Jan 07:32:47 07:33:56 11° 165° (SSE) 07:35:06 437.505
PCSat 24 Jan 07:57:51 08:02:15 26° 107° (ESE) 08:06:39 145.827
HO-68 24 Jan 07:58:02 08:04:47 47° 292° (WNW) 08:11:32 435.675
AAUSAT CUBESAT 2 24 Jan 08:00:40 08:04:47 81° 281° (W) 08:08:52 437.432
FALCONSAT 3 24 Jan 08:01:59 08:04:29 17° 209° (SSW) 08:06:58 435.103
BEESAT 3 24 Jan 08:02:52 08:06:36 41° 114° (ESE) 08:10:22 437.485
UWE-3 24 Jan 08:03:04 08:07:38 57° 285° (WNW) 08:12:06 435.000/436.395/437.385
TIGRISAT 24 Jan 08:05:40 08:08:08 15° 66° (ENE) 08:10:38 435.000
CUBEBUG 2 24 Jan 08:06:00 08:10:08 30° 289° (WNW) 08:14:12 437.445
RS-15 24 Jan 08:08:22 08:20:39 71° 301° (WNW) 08:32:51 29.354- 29.394
STRAND 1 24 Jan 08:10:49 08:13:47 16° 267° (W) 08:16:47 437.568
ZACube-1 24 Jan 08:18:12 08:22:44 77° 283° (WNW) 08:27:08 437.345
XW-2A 24 Jan 08:19:43 08:22:54 44° 285° (WNW) 08:26:04 145.665 - 145.685
UNISAT 6 24 Jan 08:20:45 08:24:19 24° 69° (ENE) 08:27:57 437.425
AO-73 24 Jan 08:22:36 08:27:06 79° 284° (WNW) 08:31:29 145.935
FO-29 24 Jan 08:23:57 08:30:09 36° 261° (W) 08:35:45 435.910
YUBILEINY 24 Jan 08:30:16 08:36:16 20° 69° (ENE) 08:42:13 435.215
SEEDS 24 Jan 08:32:22 08:34:33 14° 292° (WNW) 08:36:43 437.485
Oscar 11 24 Jan 08:51:41 08:55:56 58° 285° (WNW) 09:00:08 .
BEESAT 2 24 Jan 09:00:03 09:03:51 44° 115° (ESE) 09:07:43 435.950
PRISM 24 Jan 09:00:28 09:01:57 12° 66° (ENE) 09:03:28 437.425
JUGNU 24 Jan 09:18:29 09:22:11 17° 174° (S) 09:25:53 437.505
Max Valier Satellite 24 Jan 09:28:18 09:31:43 35° 98° (E) 09:35:04 145.860
DELFI C3 24 Jan 09:36:22 09:40:18 78° 101° (E) 09:44:15 145.870
EO-88 24 Jan 09:38:00 09:41:10 28° 97° (E) 09:44:20 145.990 - 145.960
TIGRISAT 24 Jan 09:40:09 09:44:22 44° 262° (W) 09:48:43 435.000
PCSat 24 Jan 09:40:28 09:45:25 36° 302° (WNW) 09:50:24 145.827
BEESAT 3 24 Jan 09:41:55 09:44:17 15° 310° (NW) 09:46:40 437.485
UNISAT 6 24 Jan 09:57:09 10:00:51 26° 264° (W) 10:04:39 437.425
O/OREOS (USA 219) 24 Jan 09:57:57 10:02:26 84° 250° (WSW) 10:06:55 437.305
QB50P2 24 Jan 10:06:15 10:06:44 10° 65° (ENE) 10:07:14 145.880/145.840
YUBILEINY 24 Jan 10:25:11 10:33:52 74° 267° (W) 10:42:29 435.215
RS-15 24 Jan 10:26:49 10:35:46 22° 327° (NNW) 10:44:37 29.354- 29.394
DUCHIFAT 1 24 Jan 10:28:09 10:29:55 12° 66° (ENE) 10:31:40 145.980
PRISM 24 Jan 10:32:54 10:36:47 44° 260° (W) 10:40:40 437.425
EO-79 24 Jan 10:32:56 10:35:58 20° 69° (ENE) 10:39:02 145.935-145.965
BEESAT 2 24 Jan 10:39:28 10:41:46 15° 310° (NW) 10:44:05 435.950
LO-87 24 Jan 10:45:05 10:48:00 23° 96° (E) 10:50:54 145.935 - 145.965
AIST 2D 24 Jan 10:45:51 10:49:21 71° 259° (W) 10:52:51 435.315
AO-85 24 Jan 11:02:19 11:06:12 67° 301° (WNW) 11:10:21 145.980
Max Valier Satellite 24 Jan 11:03:48 11:05:07 12° 292° (WNW) 11:06:27 145.860
JUGNU 24 Jan 11:06:42 11:10:28 18° 185° (S) 11:14:14 437.505
POLYITAN 1 24 Jan 11:07:45 11:11:51 50° 74° (ENE) 11:16:00 437.675
EO-88 24 Jan 11:12:38 11:14:30 14° 291° (WNW) 11:16:21 145.990 - 145.960
NANOSAT C BR1 24 Jan 11:19:32 11:23:41 62° 75° (ENE) 11:27:53 145.865
SRMSAT 24 Jan 11:34:44 11:38:03 15° 170° (S) 11:41:22 437.500
QB50P2 24 Jan 11:37:47 11:41:57 58° 259° (W) 11:46:10 145.880/145.840
ESTCUBE 1 24 Jan 11:40:47 11:45:17 89° 287° (WNW) 11:49:45 437.505/2401.250
DUCHIFAT 1 24 Jan 12:01:03 12:05:06 46° 261° (W) 12:09:10 145.980
EO-79 24 Jan 12:07:50 12:11:30 28° 263° (W) 12:15:11 145.935-145.965
Oscar 19 24 Jan 12:14:21 12:18:53 32° 70° (ENE) 12:23:27 437.125/150
LO-87 24 Jan 12:18:46 12:21:11 17° 290° (WNW) 12:23:35 145.935 - 145.965
SPROUT 24 Jan 12:25:29 12:29:46 64° 100° (E) 12:34:01 437.525
YUBILEINY 24 Jan 12:27:54 12:29:01 10° 284° (WNW) 12:30:07 435.215
Gurwin Techsat 1B 24 Jan 12:31:32 12:36:18 35° 70° (ENE) 12:41:04 435.225
BUGSAT 1 24 Jan 12:46:40 12:50:42 67° 259° (WSW) 12:54:50 437.445
POLYITAN 1 24 Jan 12:46:56 12:47:53 11° 268° (W) 12:48:49 437.675
RS-15 24 Jan 12:50:34 12:55:14 13° 5° (N) 12:59:49 29.354- 29.394
SO-50 24 Jan 12:51:28 12:55:32 28° 53° (NE) 12:59:38 436.795
JUGNU 24 Jan 12:56:51 12:58:43 11° 194° (SSW) 13:00:34 437.505
VELOX 1 24 Jan 12:59:04 13:03:29 79° 103° (ESE) 13:07:53 145.980
DX 1 24 Jan 13:04:20 13:06:39 14° 94° (E) 13:08:58 434.975-435.025
AO-91 24 Jan 13:10:42 13:13:58 50° 261° (W) 13:17:22 145.960
AO-7 24 Jan 13:15:53 13:22:06 24° 58° (ENE) 13:28:18 .
SRMSAT 24 Jan 13:22:27 13:26:30 19° 180° (S) 13:30:34 437.500
50 SAT 24 Jan 13:51:36 13:54:36 46° 100° (E) 13:57:35 437.505
Oscar 19 24 Jan 13:53:51 13:58:09 26° 264° (W) 14:02:28 437.125/150
Gurwin Techsat 1B 24 Jan 14:11:59 14:16:14 24° 264° (W) 14:20:30 435.225
UKube-1 24 Jan 14:18:07 14:22:24 63° 102° (ESE) 14:26:39 .
NO-84 24 Jan 14:23:48 14:26:20 20° 126° (SE) 14:28:44 435.350 FM
SO-50 24 Jan 14:31:50 14:35:56 29° 248° (WSW) 14:40:02 436.795
BEESAT 24 Jan 14:37:01 14:39:42 15° 93° (E) 14:42:22 436.000
DX 1 24 Jan 14:38:53 14:42:57 40° 287° (WNW) 14:47:02 434.975-435.025
RS-15 24 Jan 15:03:54 15:13:42 29° 40° (NE) 15:23:02 29.354- 29.394
AO-7 24 Jan 15:05:44 15:14:02 72° 255° (WSW) 15:22:26 .
ITAMSAT 1 24 Jan 15:07:45 15:12:54 75° 75° (ENE) 15:18:04 435.822/435.867
SRMSAT 24 Jan 15:11:39 15:14:57 15° 190° (S) 15:18:17 437.500
DOVE 4 24 Jan 15:12:36 15:15:09 16° 69° (ENE) 15:17:39 437.250
MOZHAYETS 4 24 Jan 15:28:17 15:32:54 74° 284° (WNW) 15:37:28
ITUPSAT 1 24 Jan 15:36:03 15:40:51 67° 102° (ESE) 15:45:37 437.325
CUBESAT XI-V 24 Jan 15:42:27 15:46:38 35° 98° (E) 15:50:48 437.345
M-CUBED/EXP-1 PRIME 24 Jan 15:52:45 15:56:58 54° 71° (ENE) 16:00:54 437.505
NO-84 24 Jan 16:00:40 16:03:23 24° 318° (NW) 16:05:57 435.350 FM
BEESAT 24 Jan 16:13:04 16:17:39 47° 287° (WNW) 16:22:13 436.000
KKS-1 24 Jan 16:29:07 16:31:19 13° 93° (E) 16:33:31 437.445
XW-2F 24 Jan 16:33:00 16:34:54 14° 69° (ENE) 16:36:49 145.980 - 146.000
HO-68 24 Jan 16:38:25 16:42:16 15° 58° (ENE) 16:46:05 435.675
XW-2D 24 Jan 16:45:12 16:48:11 22° 71° (ENE) 16:51:10 145.860 - 145.880
DOVE 4 24 Jan 16:48:42 16:52:34 33° 262° (W) 16:56:21 437.250
PCSat 24 Jan 16:50:22 16:52:23 12° 47° (NE) 16:54:24 145.827
XW-2B 24 Jan 17:02:24 17:05:53 34° 74° (ENE) 17:09:22 145.730 - 145.750
CUTE-I 24 Jan 17:10:41 17:15:38 42° 71° (ENE) 17:20:37 437.470
RS-15 24 Jan 17:15:55 17:27:32 82° 245° (WSW) 17:38:33 29.354- 29.394
ITUPSAT 1 24 Jan 17:16:28 17:18:03 12° 296° (WNW) 17:19:37 437.325
CUBESAT XI-V 24 Jan 17:20:30 17:23:43 19° 292° (WNW) 17:26:54 437.345
BEESAT 2 24 Jan 17:22:53 17:23:46 11° 47° (NE) 17:24:39 435.950
CUBEBUG 2 24 Jan 17:26:00 17:27:53 13° 65° (ENE) 17:29:47 437.445
M-CUBED/EXP-1 PRIME 24 Jan 17:30:31 17:31:25 11° 261° (W) 17:32:20 437.505
XW-2C 24 Jan 17:32:38 17:36:27 85° 258° (WSW) 17:40:18 145.795 - 145.815
LilacSat-2 24 Jan 17:35:53 17:39:44 70° 259° (W) 17:43:34 437.200
ISS 24 Jan 17:36:58 17:38:10 12° 126° (SE) 17:39:21 437.550
SEEDS 24 Jan 17:44:16 17:47:06 18° 69° (ENE) 17:49:55 437.485
KAITUO 1B 24 Jan 17:55:40 17:59:23 61° 260° (W) 18:03:06 145.475/437.950
NUDT-PHONESAT 24 Jan 17:58:47 18:02:27 59° 260° (W) 18:06:08 437.300
BEESAT 3 24 Jan 17:59:33 18:03:26 73° 243° (WSW) 18:07:14 437.485
CUTE 1.7 + AOD 2 24 Jan 18:03:43 18:07:51 54° 75° (ENE) 18:12:01 437.475
KKS-1 24 Jan 18:03:47 18:08:02 45° 287° (WNW) 18:12:17 437.445
XW-2F 24 Jan 18:05:13 18:08:40 33° 262° (W) 18:12:07 145.980 - 146.000
STARS 24 Jan 18:07:22 18:11:47 71° 101° (ESE) 18:16:12 437.465
XW-2D 24 Jan 18:19:24 18:22:14 20° 265° (W) 18:25:04 145.860 - 145.880
HO-68 24 Jan 18:21:50 18:29:00 88° 253° (WSW) 18:36:12 435.675
PCSat 24 Jan 18:31:06 18:36:33 86° 64° (ENE) 18:41:58 145.827
XW-2B 24 Jan 18:38:29 18:40:07 12° 267° (W) 18:41:46 145.730 - 145.750
nSIGHT-1 24 Jan 18:40:23 18:43:31 69° 318° (NW) 18:46:40 .
STRAND 1 24 Jan 18:44:01 18:48:03 23° 95° (E) 18:52:02 437.568
AAUSAT CUBESAT 2 24 Jan 18:46:59 18:50:48 38° 74° (ENE) 18:54:38 437.432
XW-2A 24 Jan 18:47:02 18:49:58 27° 73° (ENE) 18:52:54 145.665 - 145.685
CUTE-I 24 Jan 18:51:58 18:55:48 20° 265° (W) 18:59:39 437.470
UWE-3 24 Jan 18:55:46 19:00:11 74° 76° (ENE) 19:04:45 435.000/436.395/437.385
BEESAT 2 24 Jan 18:57:56 19:01:54 66° 244° (WSW) 19:05:47 435.950
CUBEBUG 2 24 Jan 18:59:39 19:03:56 52° 261° (W) 19:08:23 437.445
ZACube-1 24 Jan 19:09:50 19:14:09 52° 75° (ENE) 19:18:35 437.345
ISS 24 Jan 19:11:06 19:14:17 50° 321° (NW) 19:17:27 437.550
AO-73 24 Jan 19:13:54 19:18:12 50° 74° (ENE) 19:22:36 145.935
SEEDS 24 Jan 19:18:46 19:22:30 31° 263° (W) 19:26:15 437.485
RS-15 24 Jan 19:32:13 19:37:55 15° 262° (W) 19:43:32 29.354- 29.394
AO-85 24 Jan 19:35:43 19:40:29 41° 57° (ENE) 19:45:29 145.980
FO-29 24 Jan 19:36:28 19:41:04 31° 98° (E) 19:45:51 435.910
Oscar 11 24 Jan 19:42:23 19:46:41 65° 76° (ENE) 19:51:01 .
